[[{"header":{"parameterUnit":"m.s-1","parameterCategory":1,"la1":30.2991,"la2":30.254,"lo1":-89.0895,"lo2":-89.0444,"dy":0.0017,"dx":0.0017,"nx":28,"ny":28,"refTime":"2023-10-02T21:00:00:Z","depth":0,"parameterNumber":2,"parameterNumberName":"U-component_of_WINDS"},"data":[0,0,0,0,0,0,0,0,0,0,0,0,0,0,0,0,0,0,0,0,0,0,0,0,0,0,0,0,0,0,0,0,0,0,0,0,0,0,0,0,0,0,0,0,0,0,0,0,0,0,0,0,0,0,0,0,0,0,-4.0291,-4.0291,0,-4.0257,-4.0256,-4.0256,-4.0082,-4.0077,-4.0073,-4.0069,-4.0037,-4.004,-4.0043,0,0,0,0,0,0,0,0,0,0,0,0,0,-4.0208,-4.021,-4.0291,-4.0291,-4.029,-4.0257,-4.0256,-4.0256,-4.0082,-4.0077,-4.0072,-4.0068,-4.0036,-4.0039,-4.0043,0,0,0,0,0,0,0,0,0,0,0,0,0,-4.0216,-4.0211,-4.0291,-4.0199,-4.0191,-4.0257,-4.0256,-4.0256,-4.0083,-4.0077,-4.0071,-4.0065,-4.0035,-4.0039,-4.0043,-4.0196,0,0,-4.0057,-4.0059,0,0,0,0,0,0,0,0,-4.0216,-4.0219,-4.0213,-4.0206,-4.0196,-4.0167,-4.0215,-4.0236,-4.0085,-4.0124,-4.0069,-4.0062,-4.0085,-4.0085,-4.0092,-4.0194,-4.0193,-4.0057,-4.006,-4.0062,-4.0063,0,0,0,0,0,0,0,-4.0216,-4.022,-4.0277,-4.0214,-4.0203,-4.0161,-4.0155,-4.0218,-4.014,-4.012,-4.0108,-4.0106,-4.0079,-4.0089,-4.009,-4.0192,-4.0057,-4.0061,-4.0064,-4.0066,-4.0417,-4.0423,0,0,0,0,0,0,-4.0228,-4.0221,-4.0278,-4.0276,-4.0191,-4.0167,-4.0161,-4.0183,-4.0139,-4.0126,-4.0111,-4.0098,-4.0084,-4.0085,-4.0089,-4.0263,-4.0062,-4.0066,-4.0069,-4.041,-4.0418,-4.0425,0,0,0,0,0,0,-4.0226,-4.0234,-4.028,-4.0245,-4.0247,-4.0175,-4.0201,-4.0185,-4.0194,-4.0132,-4.0117,-4.0135,-4.0079,-4.0082,-4.017,-4.026,-4.0068,-4.0072,-4.0402,-4.0412,-4.0422,-4.0615,0,0,0,0,0,0,-4.0225,-4.0235,-4.0292,-4.0248,-4.025,-4.0362,-4.0207,-4.0189,-4.0202,-4.0184,-4.015,-4.0139,-4.0075,-4.0164,-4.0175,-4.0263,-4.0076,-4.0394,-4.0407,-4.0418,-4.06,-4.063,-4.0656,0,0,0,0,0,-4.0222,-4.0348,-4.0295,-4.0303,-4.0319,-4.0367,-4.0369,-4.0292,-4.021,-4.0267,-4.0227,-4.014,-4.0249,-4.0175,-4.0185,-4.0276,-4.0388,-4.0403,-4.0418,-4.0588,-4.0624,-4.0655,0,0,0,0,0,0,-4.0405,-4.0341,-4.0281,-4.0396,-4.0389,-4.0338,-4.0407,-4.0333,-4.0349,-4.0332,-4.0236,-4.023,-4.0332,-4.0312,-4.0231,-4.042,-4.0303,-4.0321,-4.0429,-4.0464,-4.0491,-4.0493,-4.008,0,0,0,0,0,-4.0459,-4.0503,-4.0444,-4.0551,-4.055,-4.048,-4.0498,-4.0439,-4.0428,-4.0424,-4.039,-4.0383,-4.0415,-4.0438,-4.0465,-4.0597,-4.0587,-4.0664,-4.0692,-4.0715,-4.0732,-4.08,-4.0834,-4.0474,-4.0474,-4.0474,0,0,-4.057,-4.054,-4.0574,-4.0587,-4.0574,-4.0622,-4.0478,-4.0535,-4.057,-4.0432,-4.0512,-4.0488,-4.0474,-4.0585,-4.0632,-4.0571,-4.0829,-4.0734,-4.0753,-4.0757,-4.0819,-4.0853,-4.0883,-4.0484,-4.0482,-4.0481,0,0,-4.0797,-4.078,-4.0866,-4.0856,-4.0838,-4.079,-4.0812,-4.0772,-4.075,-4.0829,-4.0727,-4.0768,-4.0826,-4.0819,-4.0824,-4.105,-4.097,-4.1061,-4.1206,-4.1274,-4.1303,-4.1327,-4.1408,-4.1438,-4.1078,-4.1078,-4.1078,0,-4.0938,-4.1006,-4.0921,-4.0984,-4.0993,-4.087,-4.0958,-4.0952,-4.0945,-4.0954,-4.0887,-4.0956,-4.0938,-4.1046,-4.1101,-4.1109,-4.113,-4.1064,-4.1305,-4.1329,-4.1351,-4.1426,-4.1457,-4.1089,-4.1088,-4.1087,-4.1086,0,-4.1179,-4.1228,-4.1301,-4.1295,-4.1312,-4.1388,-4.1315,-4.1343,-4.1283,-4.1243,-4.1325,-4.1299,-4.1318,-4.1339,-4.1282,-4.1439,-4.1402,-4.1322,-4.1202,-4.1398,-4.1467,-4.1495,-4.1105,-4.1101,-4.1098,-4.1095,0,0,-4.152,-4.1467,-4.1495,-4.1491,-4.1462,-4.1498,-4.1569,-4.1586,-4.1612,-4.1611,-4.1668,-4.172,-4.1645,-4.1651,-4.1591,-4.1651,-4.1832,-4.1563,-4.1561,-4.1614,-4.2003,-4.2063,-4.2098,-4.1779,-4.1784,-4.1788,-4.2004,0,-4.1737,-4.1853,-4.1778,-4.1906,-4.195,-4.1834,-4.1896,-4.1885,-4.185,-4.1883,-4.1844,-4.1882,-4.1781,-4.1783,-4.1837,-4.1798,-4.1908,-4.1782,-4.1831,-4.1834,-4.1838,-4.2134,-4.2198,-4.2403,-4.2031,-4.2035,-4.2038,0,-4.2005,-4.2015,-4.2147,-4.211,-4.2125,-4.2182,-4.2191,-4.2224,-4.221,-4.218,-4.2187,-4.2113,-4.218,-4.2063,-4.2154,-4.207,-4.2086,-4.207,-4.2076,-4.2077,-4.1948,-4.2143,-4.2466,-4.2497,-4.208,-4.2077,-4.2074,0,-4.224,-4.2286,-4.2371,-4.2371,-4.233,-4.2372,-4.2357,-4.2337,-4.2352,-4.2362,-4.2371,-4.2389,-4.2399,-4.2415,-4.2348,-4.2269,-4.2448,-4.2325,-4.2426,-4.2428,-4.2468,-4.2466,-4.2798,-4.248,-4.248,-4.2479,-4.2478,0,-4.2489,-4.2575,-4.2476,-4.2528,-4.2621,-4.2535,-4.2629,-4.2602,-4.2585,-4.263,-4.2532,-4.2577,-4.2486,-4.2523,-4.2471,-4.2554,-4.256,-4.2538,-4.2523,-4.2546,-4.2549,-4.2555,-4.2539,-4.2487,-4.2485,-4.2484,-4.2482,0,-4.2767,-4.2704,-4.2789,-4.2742,-4.2733,-4.2803,-4.2764,-4.281,-4.2769,-4.2828,-4.2836,-4.2771,-4.2809,-4.2744,-4.2774,-4.2739,-4.2855,-4.2819,-4.286,-4.2849,-4.2952,-4.2944,-4.3299,-4.3341,-4.2997,-4.3001,-4.3004,0,-4.2929,-4.2992,-4.2953,-4.2975,-4.2966,-4.3004,-4.3019,-4.2938,-4.2958,-4.2947,-4.2995,-4.3024,-4.3043,-4.3108,-4.3064,-4.3087,-4.305,-4.3173,-4.3052,-4.3074,-4.3051,-4.3048,-4.3054,-4.3197,-4.3202,-4.3205,-4.3208,0,-4.3225,-4.3191,-4.3216,-4.3231,-4.3251,-4.3259,-4.326,-4.3285,-4.3198,-4.3226,-4.3262,-4.3277,-4.3307,-4.3337,-4.3349,-4.3334,-4.3258,-4.3246,-4.327,-4.3295,-4.3316,-4.3305,-4.2927,-4.3238,-4.3235,-4.3233,-4.3231,-4.323,-4.3449,-4.35,-4.348,-4.3511,-4.3503,-4.3506,-4.3548,-4.3511,-4.354,-4.3557,-4.3507,-4.3556,-4.3541,-4.3548,-4.3542,-4.3579,-4.3525,-4.356,-4.3569,-4.3579,-4.3595,-4.3311,-4.3581,-4.358,-4.3579,-4.3578,-4.3578,0,-4.3739,-4.3721,-4.375,-4.3754,-4.3779,-4.3704,-4.3701,-4.3727,-4.3771,-4.3763,-4.3783,-4.3826,-4.3855,-4.3813,-4.3835,-4.3873,-4.3839,-4.3882,-4.3878,-4.3876,-4.3643,-4.3619,-4.3909,-4.3909,-4.3909,-4.3909,-4.3909,-4.3909,-4.3893,-4.3974,-4.3938,-4.4015,-4.3995,-4.4041,-4.4046,-4.4049,-4.4041,-4.4093,-4.4116,-4.4089,-4.4068,-4.4087,-4.4111,-4.4098,-4.4111,-4.4167,-4.4142,-4.3925,-4.3892,-4.3861,-4.3839,-4.417,-4.417,-4.4371,-4.4373,-4.4375]},{"header":{"parameterUnit":"m.s-1","parameterCategory":1,"la1":30.2991,"la2":30.254,"lo1":-89.0895,"lo2":-89.0444,"dy":0.0017,"dx":0.0017,"nx":28,"ny":28,"refTime":"2023-10-02T21:00:00:Z","depth":0,"parameterNumber":3,"parameterNumberName":"V-component_of_WINDS"},"data":[0,0,0,0,0,0,0,0,0,0,0,0,0,0,0,0,0,0,0,0,0,0,0,0,0,0,0,0,0,0,0,0,0,0,0,0,0,0,0,0,0,0,0,0,0,0,0,0,0,0,0,0,0,0,0,0,0,0,1.1792,1.1792,0,1.1766,1.1766,1.1766,1.1804,1.1806,1.1807,1.1808,1.1774,1.1772,1.177,0,0,0,0,0,0,0,0,0,0,0,0,0,1.1869,1.1867,1.1792,1.1792,1.1792,1.1766,1.1766,1.1766,1.1804,1.1806,1.1807,1.1809,1.1775,1.1773,1.177,0,0,0,0,0,0,0,0,0,0,0,0,0,1.1838,1.1867,1.1792,1.1808,1.1809,1.1767,1.1766,1.1766,1.1804,1.1806,1.1808,1.181,1.1776,1.1773,1.177,1.1708,0,0,1.176,1.1758,0,0,0,0,0,0,0,0,1.184,1.1835,1.1806,1.1807,1.1808,1.1791,1.1781,1.1746,1.1803,1.1805,1.1808,1.1811,1.1778,1.1774,1.1765,1.1707,1.1705,1.1759,1.1757,1.1756,1.1755,0,0,0,0,0,0,0,1.1842,1.1837,1.1782,1.1805,1.1807,1.1814,1.1812,1.1774,1.178,1.1805,1.1808,1.1805,1.1779,1.1768,1.1764,1.1705,1.1759,1.1756,1.1754,1.1753,1.1595,1.1593,0,0,0,0,0,0,1.1843,1.1838,1.1783,1.1781,1.183,1.1811,1.1809,1.1794,1.1781,1.1781,1.1803,1.1807,1.1772,1.1768,1.1763,1.169,1.1756,1.1753,1.1751,1.1598,1.1595,1.1592,0,0,0,0,0,0,1.1845,1.1838,1.1784,1.181,1.1804,1.1808,1.1791,1.1792,1.1782,1.1779,1.178,1.1792,1.1774,1.1768,1.1722,1.1689,1.1751,1.1748,1.16,1.1597,1.1594,1.1544,0,0,0,0,0,0,1.1847,1.1838,1.1816,1.181,1.1803,1.1744,1.1789,1.1791,1.1777,1.1782,1.1768,1.1768,1.1775,1.1727,1.1719,1.1686,1.1746,1.1603,1.1599,1.1595,1.1548,1.1539,1.1531,0,0,0,0,0,1.1849,1.1801,1.1815,1.1808,1.1775,1.1743,1.1738,1.1749,1.1774,1.1751,1.175,1.1768,1.1695,1.1722,1.1713,1.1679,1.1605,1.16,1.1595,1.1552,1.1541,1.1531,0,0,0,0,0,0,1.18,1.1801,1.1815,1.1764,1.1754,1.1749,1.172,1.1737,1.1717,1.1721,1.1734,1.1731,1.1682,1.1676,1.1706,1.1619,1.1654,1.1647,1.1624,1.1614,1.1605,1.1606,1.1743,0,0,0,0,0,1.1784,1.176,1.1761,1.1715,1.1709,1.1716,1.1702,1.1712,1.17,1.1695,1.169,1.1676,1.165,1.1632,1.1608,1.1549,1.1546,1.1521,1.1513,1.1506,1.1498,1.1466,1.1455,1.1576,1.1576,1.1576,0,0,1.1749,1.1746,1.1729,1.1705,1.1698,1.167,1.1711,1.168,1.1659,1.1689,1.1646,1.1643,1.1628,1.1575,1.1552,1.1569,1.1465,1.1499,1.1494,1.149,1.146,1.1448,1.1438,1.1573,1.1573,1.1574,0,0,1.1671,1.1667,1.1629,1.1622,1.1612,1.1617,1.1608,1.1602,1.1601,1.1559,1.1581,1.1556,1.1511,1.1499,1.1487,1.1408,1.1424,1.14,1.1354,1.1323,1.1313,1.1305,1.1274,1.1264,1.1393,1.1393,1.1393,0,1.1628,1.1589,1.1607,1.1575,1.1563,1.1593,1.1553,1.1545,1.1526,1.1516,1.1537,1.1482,1.1474,1.1419,1.14,1.139,1.1378,1.14,1.1314,1.1305,1.1297,1.1269,1.1258,1.139,1.1391,1.1391,1.1391,0,1.1536,1.1509,1.1479,1.1463,1.1449,1.1413,1.1423,1.1406,1.1418,1.1421,1.1377,1.137,1.1344,1.1333,1.1343,1.1279,1.129,1.1312,1.1347,1.1283,1.1256,1.1245,1.1386,1.1387,1.1388,1.1389,0,0,1.1422,1.142,1.1408,1.1402,1.1394,1.1372,1.1338,1.1316,1.13,1.1287,1.1257,1.122,1.1241,1.1227,1.1237,1.121,1.1146,1.1235,1.1235,1.1217,1.1074,1.1055,1.1042,1.1158,1.1156,1.1155,1.1074,0,1.1343,1.1286,1.1302,1.1244,1.1218,1.1248,1.1218,1.1209,1.1211,1.1188,1.119,1.1163,1.1193,1.1185,1.116,1.1159,1.1117,1.1166,1.1128,1.1126,1.1128,1.1029,1.1009,1.0933,1.1064,1.1062,1.1061,0,1.1242,1.1228,1.1168,1.1166,1.1156,1.1129,1.1111,1.109,1.108,1.1083,1.107,1.1086,1.105,1.1088,1.1038,1.1071,1.1057,1.1054,1.1052,1.1046,1.1087,1.1018,1.0909,1.0897,1.1045,1.1046,1.1048,0,1.1163,1.1129,1.1089,1.1083,1.108,1.106,1.1057,1.105,1.1036,1.102,1.1011,1.099,1.0978,1.096,1.0969,1.0997,1.0917,1.0956,1.0917,1.0916,1.0896,1.0896,1.0781,1.0891,1.0892,1.0892,1.0892,0,1.1071,1.1033,1.1054,1.1029,1.0987,1.1006,1.0962,1.0963,1.0957,1.0931,1.0955,1.093,1.0945,1.0921,1.0928,1.0884,1.0879,1.0879,1.0881,1.0875,1.0875,1.0864,1.0868,1.0889,1.0889,1.089,1.089,0,1.0974,1.0987,1.0945,1.0947,1.0947,1.0915,1.0916,1.0891,1.0897,1.0864,1.0857,1.0865,1.0837,1.0846,1.0816,1.0821,1.0765,1.0775,1.0769,1.077,1.073,1.0732,1.06,1.0583,1.0707,1.0706,1.0705,0,1.0913,1.0885,1.0885,1.0871,1.0867,1.0844,1.0831,1.0849,1.0834,1.0823,1.0799,1.0775,1.0756,1.0711,1.0712,1.0689,1.0697,1.0653,1.0693,1.0689,1.0693,1.0694,1.069,1.0643,1.0641,1.064,1.0639,0,1.0803,1.0812,1.0794,1.0778,1.0763,1.075,1.074,1.0726,1.0744,1.0726,1.07,1.0686,1.0657,1.0631,1.0611,1.0606,1.0624,1.0628,1.0617,1.0609,1.0606,1.0605,1.0744,1.0629,1.063,1.0631,1.0632,1.0632,1.0721,1.0697,1.0694,1.0673,1.0668,1.0658,1.0636,1.064,1.062,1.0599,1.0611,1.058,1.0572,1.0547,1.054,1.0515,1.0532,1.0517,1.0512,1.0508,1.0502,1.0613,1.0512,1.0512,1.0512,1.0513,1.0513,0,1.0611,1.0611,1.0592,1.0578,1.0561,1.0585,1.0575,1.0558,1.0532,1.0524,1.0507,1.0476,1.0453,1.0454,1.0431,1.0411,1.0419,1.0404,1.0404,1.0402,1.0489,1.0499,1.0398,1.0398,1.0398,1.0398,1.0398,1.0398,1.0551,1.0512,1.052,1.0479,1.0479,1.0451,1.0443,1.0434,1.0428,1.0394,1.0376,1.0378,1.0373,1.0351,1.033,1.0331,1.032,1.0302,1.0305,1.0385,1.0396,1.0407,1.0417,1.03,1.03,1.022,1.022,1.0219]}]]